Santa Ana, CA

5:53 PM PDT on September 29, 2016 (GMT -0700)
John Wayne-Orange County

Weather History for KSNA - October, 2012

Change the Weather History Date:

Thursday, October 11, 2012

  Actual Average Record
Temperature  
Mean Temperature 68 °F 68 °F  
Max Temperature 72 °F 76 °F 94 °F (2015)
Min Temperature 63 °F 60 °F 54 °F (2008)
Degree Days  
Heating Degree Days 0 0  
Month to date heating degree days 0 0  
Since 1 July heating degree days 0 1  
Cooling Degree Days 3 3  
Month to date cooling degree days 90 40  
Year to date cooling degree days 1180 808  
Growing Degree Days 17 (Base 50)    
Moisture  
Dew Point 54 °F    
Average Humidity 60    
Maximum Humidity 78    
Minimum Humidity 41    
Precipitation  
Precipitation 0.09 in 0.02 in 0.09 in (2012)
Month to date precipitation 0.09 0.14  
Year to date precipitation 4.12 9.39  
Since 1 July precipitation 0.25  
Snow  
Snow 0.00 in - - ()
Month to date snowfall 0.0  
Year to date snowfall 0.0  
Snow Depth 0.00 in    
Sea Level Pressure  
Sea Level Pressure 29.92 in    
Wind  
Wind Speed 4 mph (SE)    
Max Wind Speed 13 mph    
Max Gust Speed 20 mph    
Visibility 10 miles    
Events Rain    
T = Trace of Precipitation, MM = Missing Value Source: NWS Daily Summary

Daily Weather History Graph

Daily Weather History Graph

Search for Another Location

Airport or City:

Trip Planner

Search our weather history database for the weather conditions in past years. The results will help you decide how hot, cold, wet, or windy it might be!

Date:

Astronomy

Oct. 11, 2012 Rise Set
Actual Time 6:53 AM PDT 6:21 PM PDT
Civil Twilight 6:28 AM PDT 6:46 PM PDT
Nautical Twilight 5:59 AM PDT 7:15 PM PDT
Astronomical Twilight 5:30 AM PDT 7:44 PM PDT
Moon 2:48 AM PDT (10/11) 3:51 PM PDT (10/11)
Length of Visible Light 12h 18m
Length of Day
11h 28m
Waning Crescent, 17% of the Moon is Illuminated
Oct 11
Waning Crescent
Oct 15
New
Oct 21
First Quarter
Oct 29
Full
Nov 6
Last Quarter

Hourly Weather History & Observations

Time (PDT) Temp. Dew Point Humidity Pressure Visibility Wind Dir Wind Speed Gust Speed Precip Events Conditions
12:53 AM 66.9 °F 54.0 °F 63% 29.91 in 10.0 mi North 3.5 mph - N/A   Mostly Cloudy
1:53 AM 66.0 °F 55.0 °F 68% 29.91 in 10.0 mi Calm Calm - 0.00 in Rain Light Rain
2:53 AM 64.9 °F 55.9 °F 73% 29.90 in 10.0 mi Calm Calm - 0.00 in   Mostly Cloudy
3:53 AM 64.0 °F 55.9 °F 75% 29.89 in 10.0 mi Calm Calm - 0.01 in   Clear
4:53 AM 64.0 °F 55.0 °F 73% 29.89 in 10.0 mi Calm Calm - N/A   Partly Cloudy
5:53 AM 64.0 °F 55.0 °F 73% 29.90 in 10.0 mi Calm Calm - N/A   Mostly Cloudy
6:53 AM 63.0 °F 55.0 °F 75% 29.90 in 10.0 mi East 5.8 mph - N/A   Mostly Cloudy
7:53 AM 63.0 °F 55.9 °F 78% 29.91 in 10.0 mi Calm Calm - 0.01 in   Mostly Cloudy
8:53 AM 64.0 °F 55.9 °F 75% 29.92 in 10.0 mi East 4.6 mph - N/A   Mostly Cloudy
9:53 AM 63.0 °F 55.0 °F 75% 29.93 in 10.0 mi Calm Calm - 0.00 in Rain Light Rain
10:53 AM 66.0 °F 55.0 °F 68% 29.93 in 10.0 mi SSW 3.5 mph - 0.01 in   Mostly Cloudy
11:53 AM 68.0 °F 51.1 °F 55% 29.93 in 10.0 mi Variable 4.6 mph - N/A   Mostly Cloudy
1:53 PM 71.1 °F 46.9 °F 42% 29.90 in 10.0 mi South 11.5 mph - N/A   Mostly Cloudy
3:53 PM 66.9 °F 57.0 °F 70% 29.90 in 10.0 mi South 13.8 mph 19.6 mph 0.00 in Rain Light Rain
4:53 PM 68.0 °F 55.0 °F 63% 29.90 in 10.0 mi SSW 10.4 mph - 0.06 in   Mostly Cloudy
6:53 PM 66.0 °F 53.1 °F 63% 29.92 in 10.0 mi Calm Calm - N/A   Scattered Clouds
7:53 PM 64.0 °F 51.1 °F 63% 29.93 in 10.0 mi NE 4.6 mph - N/A   Scattered Clouds
8:53 PM 64.0 °F 50.0 °F 60% 29.95 in 10.0 mi SE 3.5 mph - N/A   Scattered Clouds
9:53 PM 63.0 °F 51.1 °F 65% 29.96 in 10.0 mi Calm Calm - N/A   Partly Cloudy
10:53 PM 63.0 °F 52.0 °F 67% 29.97 in 10.0 mi East 5.8 mph - N/A   Scattered Clouds
11:53 PM 62.1 °F 52.0 °F 70% 29.97 in 10.0 mi Calm Calm - N/A   Clear